User: anonymous   Login
Location: Unspecified
(0.0000°N, 0.0000°E)
Time: 20:00:51
(UTC+00:00)
Language:

NOSS 3-2 (A) - Orbit

View from above orbital plane
View from above orbital plane
View from above satellite
View from above satellite

Ground track
Ground track

The orbit data is extracted from the following two-line orbital elements,

1 28095U 03054A   19059.14758952 0.00000000  00000-0  00000-0 0    04
2 28095  63.4105 166.1092 0364000 358.6907   1.3093 13.41373305    07
Epoch (UTC): 28 February 2019 03:32:31
Eccentricity: 0.0364000
inclination: 63.4105°
perigee height: 832 km
apogee height: 1376 km
right ascension of ascending node: 166.1092°
argument of perigee: 358.6907°
revolutions per day: 13.41373305
mean anomaly at epoch: 1.3093°
orbit number at epoch: 0

The dashed part of the orbit path shows where the satellite is in the earth's shadow,  

DLR